Welcome to the New NWS' Forecast!
Most changes are behind the scenes, but click here for differences you might notice.

Regional Weather Roundup (RWR)

Issued by National Weather Service (NWS)

                            
702 
NZUS52 KFFC 150503
RWROBS
WEATHER ROUNDUP FOR GEORGIA
NATIONAL WEATHER SERVICE PEACHTREE CITY GA
100 AM EDT WED AUG 15 2018

NOTE: "FAIR" INDICATES FEW OR NO CLOUDS BELOW 12,000 FEET WITH NO
SIGNIFICANT WEATHER AND/OR OBSTRUCTIONS TO VISIBILITY. 

* = USE WITH CAUTION. THE STATIONS MARKED WITH AN ASTERISK MAY NOT
REPORT WEATHER SUCH AS PRECIPITATION, FOG, OR THUNDER AND ARE NOT 
QUALITY CONTROLLED BY NWS.

THE REMARK "TC" DENOTES TEMPERATURE READING IN DEGREES CELSIUS.

GAZ001>058-150600-
NORTH GEORGIA
  
CITY           SKY/WX    TMP DP  RH WIND       PRES   REMARKS
ATLANTA        FAIR      76  66  71 CALM      30.09S                  
ATHENS         FAIR      70  68  93 CALM      30.08R                  
CHAMBLEE       FAIR      70  67  90 CALM      30.09R                  
PEACHTREE CITY FAIR      70  68  93 CALM      30.09S                  
ROME           FAIR      71  67  87 NE3       30.07R                  
WEST ATLANTA   FAIR      70  69  97 CALM      30.09R                  
GAINESVILLE    FAIR      72  67  84 W3        30.12R                  
CARTERSVILLE   FAIR      67  67 100 CALM      30.09R                  
BLAIRSVILLE    FAIR      62  61  98 S3        30.16S FOG              
DECATUR        FAIR      72  69  90 CALM      30.06R                  
CLEMSON        FAIR      73  64  73 NW6       30.08S                  
GREENVILLE     CLOUDY    75  70  84 SW3       30.08R                  
FLORENCE       NOT AVBL                                               
CHARLESTON     FAIR      77  75  93 S5        30.04F                  
MYRTLE BEACH   FAIR      76  74  93 W5        30.06S                  
FAYETTEVILLE   FAIR      74  71  91 CALM      30.03R                  
WILMINGTON     FAIR      77  73  87 SW5       30.04S                  
RALEIGH        FAIR      73  72  96 CALM      30.04R                  
DALTON         FAIR      68  68 100 CALM      30.10S                  
LAWRENCEVILLE  FAIR      69  67  93 CALM      30.10R                  
MARIETTA       FAIR      71  67  84 S3        30.09R                  
KENNESAW       FAIR      72  68  87 CALM      30.10R                  
WINDER         FAIR      72  66  83 CALM      30.12R                  
CANTON         FAIR      68  64  88 CALM      30.12R FOG              
TOCCOA         FAIR      73  68  83 CALM      30.09R                  
CORNELIA       FAIR      69  68  96 NE5       30.10F                  
JASPER         FAIR      67  64  92 CALM      30.15R                  
CHARLOTTE      MOCLDY    75  72  90 NW5       30.06S                  
$$

GAZ059>098-102>109-150600-
OTHER STATIONS
  
CITY           SKY/WX    TMP DP  RH WIND       PRES   REMARKS
AUGUSTA-BUSH   FAIR      75  70  84 CALM      30.02F                  
AUGUSTA-DANIEL FAIR      77  71  82 W5        30.04F                  
COLUMBUS       FAIR      78  73  84 CALM      30.06S HX  81           
MACON          FAIR      75  73  93 SW3       30.06F                  
ROBINS AFB     FAIR      75  73  93 SW3       30.06F                  
GREENSBORO     FAIR      73  70  88 CALM      30.05S                  
THOMSON        FAIR      71  68  89 CALM      30.11S                  
SANDERSVILLE   NOT AVBL                                               
THOMASTON      MOCLDY    73  70  88 CALM      30.10S FOG              
BUTLER           N/A     75  74  96 CALM      30.08F                  
LAGRANGE       FAIR      75  74  99 NW3       30.08S                  
MILLEDGEVILLE  FAIR      75  73  94 SW3       30.07S                  
CARROLLTON     FAIR      69  67  94 CALM      30.13S                  
AMERICUS       MOCLDY    73  68  83 E6        30.10S                  
CORDELE        MOCLDY    75  73  93 SE7       30.09F                  
SAVANNAH       FAIR      76  73  91 CALM      30.06R                  
NEW BERN       CLOUDY    73  72  96 S7        30.04S                  
HUNTSVILLE     FAIR      76  71  85 SE3       30.06R                  
$$

GAZ099>101-110>166-150600-
OTHER STATIONS
  
CITY           SKY/WX    TMP DP  RH WIND       PRES   REMARKS
VALDOSTA       FAIR      73  73 100 CALM      30.07S                  
ALMA           FAIR      77  73  87 S3        30.06F                  
ST SIMONS      FAIR      80  71  74 SW8       30.07R HX  84           
FT STEWART     FAIR      76  74  95 CALM      30.03S                  
ALBANY         FAIR      74  71  91 CALM      30.08S                  
HUNTER AFB     FAIR      77  73  87 CALM      30.03R                  
MOODY AFB      FAIR      74  72  92 S3        30.07S                  
BRUNSWICK      FAIR      77  70  78 S6        30.07S                  
BAINBRIDGE       N/A     79  73  83 CALM      30.05F HX  82           
MOULTRIE       FAIR      73  72  94 CALM      30.08S                  
VIDALIA        FAIR      72  68  88 SW5       30.05S                  
WAYCROSS       FAIR      77  74  90 SW3       30.07F                  
DOUGLAS        CLOUDY    75  73  94 CALM      30.10S                  
TIFTON         MOCLDY   N/A N/A N/A CALM      30.08S                  
HAZELHURST     FAIR      74  70  88 CALM      30.05F                  
COLUMBIA       FAIR      75  72  90 W6        30.03F                  
RALEIGH        FAIR      73  72  96 CALM      30.04R                  
GREENSBORO     MOCLDY    73  67  81 W3        30.06R                  
HICKORY        FAIR      72  68  87 CALM      30.08S                  
ASHEVILLE      CLOUDY    68  65  90 CALM      30.16S                  
KNOXVILLE      FAIR      72  68  87 CALM      30.08R                  
NASHVILLE      MOCLDY    76  67  73 CALM      30.05R                  
JACKSONMS      FAIR      74  71  91 CALM      30.02S                  
TUPELO         NOT AVBL                                               
GREENWOOD      FAIR      75  72  90 CALM      30.01S                  
MERIDIAN       FAIR      78  75  90 S3        30.03S HX  81           
NEW ORLEANS    MOCLDY    80  77  90 SW3       30.01S HX  87           
$$